Regional Weather Roundup
Issued by NWS

Home | Current Version | Previous Version | Text Only | Print | Product List | Glossary Off
Versions: 1 2 3 4 5 6 7 8 9 10 11 12 13 14 15 16 17 18 19 20 21 22 23 24 25 26 27 28 29 30 31 32 33 34 35 36 37 38 39 40 41 42 43 44 45 46 47 48 49 50

032
ASUS43 KMKX 231411
RWRWI

WISCONSIN REGIONAL WEATHER ROUNDUP
NATIONAL WEATHER SERVICE MILWAUKEE/SULLIVAN WI
900 AM CDT TUE AUG 23 2016

NOTE: "FAIR" INDICATES FEW OR NO CLOUDS BELOW 12,000 FEET WITH NO
SIGNIFICANT WEATHER AND/OR OBSTRUCTIONS TO VISIBILITY.

WIZ001-002-006>008-014>016-023>028-231500-
NORTHWEST WISCONSIN

CITY           SKY/WX    TMP DP  RH WIND       PRES   REMARKS
SUPERIOR ARPT  SUNNY     72  63  72 SW10      29.90S
ASHLAND        SUNNY     73  62  68 SW16G25   29.95S
HAYWARD        SUNNY     71  60  68 S14       29.98F
SIREN          MOSUNNY   72  60  67 S12       29.94F
CUMBERLAND     SUNNY     68  59  73 S12       29.99F
RICE LAKE      SUNNY     70  61  73 S10G16    30.01F
CHETEK         NOT AVBL
LADYSMITH      SUNNY     69  62  78 S12G17    30.05S
EAU CLAIRE     MOSUNNY   70  61  73 S9        30.02S
MENOMONIE      MOSUNNY   71  62  72 SE10      30.02S
NEW RICHMOND   MOSUNNY   70  59  68 S12       29.98S
OSCEOLA        SUNNY     72  61  70 S8G16     29.99S
$$

WIZ003>005-009-010-017-018-231500-
NORTH CENTRAL WISCONSIN

CITY           SKY/WX    TMP DP  RH WIND       PRES   REMARKS
MANITOWISH WTR NOT AVBL
ARBOR VITAE    SUNNY     69  62  80 SW9       30.05F
WOODRUFF       SUNNY     69  62  80 SW9       30.05F
RHINELANDER    SUNNY     69  62  78 SW12      30.09S
EAGLE RIVER    SUNNY     68  58  71 SW7       30.06F
LAND O LAKES   SUNNY     69  61  76 SW8       30.07R
PHILLIPS       SUNNY     67  61  82 S10       30.04S
TOMAHAWK       SUNNY     65  61  86 SW6       30.08F
MEDFORD        SUNNY     67  63  86 S10G17    30.08S
MERRILL        SUNNY     68  61  78 SW9       30.10S
$$

WIZ029-030-035-036-043>047-231500-
CENTRAL WISCONSIN

CITY           SKY/WX    TMP DP  RH WIND       PRES   REMARKS
WAUSAU         SUNNY     68  60  75 S9        30.09S
MOSINEE        SUNNY     66  63  88 S7        30.11S
MARSHFIELD     SUNNY     69  60  73 S8        30.09S
STEVENS POINT  SUNNY     67  59  75 SW10G17   30.12S
WAUPACA        SUNNY     70  62  75 S7        30.13S
WAUTOMA        SUNNY     70  61  73 SW8       30.13S
WISC RAPIDS    SUNNY     70  61  73 S10       30.11F
CAMP DOUGLAS   MOSUNNY   70  61  73 S9        30.10S
$$

WIZ011>013-019>022-031-037>040-048>050-231500-
NORTHEAST WISCONSIN

CITY           SKY/WX    TMP DP  RH WIND       PRES   REMARKS
ANTIGO         SUNNY     67  60  80 CALM      30.11F
SHAWANO        SUNNY     70  61  71 S7        30.12S
OCONTO         NOT AVBL
STURGEON BAY   SUNNY     71  60  68 S13       30.13S
GREEN BAY      SUNNY     69  64  84 S8        30.13S
MANITOWOC      SUNNY     70  59  68 S8        30.16S
APPLETON       NOT AVBL
CLINTONVILLE   SUNNY     68  59  73 SW8       30.12S
OSHKOSH        SUNNY     69  59  70 S10       30.14S
$$

WIZ032>034-041-042-053>061-231500-
SOUTHWEST WISCONSIN

CITY           SKY/WX    TMP DP  RH WIND       PRES   REMARKS
LA CROSSE      MOSUNNY   73  67  81 S13       30.07R
SPARTA         MOSUNNY   71  62  73 SW6       30.10R
VIROQUA        MOSUNNY   69  61  76 S8        30.11S
BOSCOBEL       SUNNY     73  61  65 VRB5      30.12R
PRAIRIE DU CHI MOSUNNY   70  59  67 S5        30.11R
PLATTEVILLE    MOSUNNY   69  64  85 S12       30.15S
$$

WIZ056-057-062-063-064-067-068-231500-
SOUTH CENTRAL WISCONSIN

CITY           SKY/WX    TMP DP  RH WIND       PRES   REMARKS
REEDSBURG      NOT AVBL
BARABOO/DELLS  SUNNY     69  58  68 S9        30.13S
LONE ROCK      SUNNY     70  60  70 S7        30.14R
MINERAL POINT  SUNNY     68  63  83 S9        30.15R
MADISON        PTSUNNY   69  60  73 S10       30.15S
MIDDLETON      SUNNY     70  60  70 SW12G17   30.16R
WATERTOWN      SUNNY     67  61  79 S9        30.16S
MONROE         SUNNY     66  59  77 S10       30.17R
JANESVILLE     MOSUNNY   70  61  73 S12G17    30.17R
$$

WIZ051-052-058>065-066-070>072-231500-
SOUTHEAST WISCONSIN

CITY           SKY/WX    TMP DP  RH WIND       PRES   REMARKS
MILWAUKEE      MOSUNNY   73  59  61 SW12      30.19R
WAUKESHA       SUNNY     66  57  72 S7        30.19S
MILWAUKEE/TIMM SUNNY     70  55  60 S6        30.19S
RACINE         SUNNY     72  60  66 SW9       30.21R
BURLINGTON     SUNNY     67  59  75 S8        30.19S
KENOSHA        SUNNY     72  61  68 SW8       30.20R
FOND DU LAC    SUNNY     71  60  68 SW8       30.15S
SHEBOYGAN      SUNNY     70  60  70 SW9       30.17R
WEST BEND      SUNNY     70  59  68 S8        30.18R
JUNEAU         SUNNY     68  59  73 S9        30.18R
$$

LSZ147-162-231500-
LAKE SUPERIOR

STATION/POSITION TIME  TEMP    WIND        PRES    WAVE
                       AIR SEA DIR/SP/G            HT/PER
                 (UTC) (F)     (DEG/KT/KT) (MB)    (FT/S)
W MID LAKE BUOY  1350   69 66  210/ 12/ 14 1013.2S   2/ 5
DEVILS ISLAND    1400   70     180/  6/  9 1013.3F
SAXON HARBOR     1300   71     200/ 12/ 18 1013.5
$$

LMZ867-665-643>646-231500-
LAKE MICHIGAN

STATION/POSITION TIME  TEMP    WIND        PRES    WAVE
                       AIR SEA DIR/SP/G            HT/PER
                 (UTC) (F)     (DEG/KT/KT) (MB)    (FT/S)
CHAMBERS ISLAND  1300   70     170/  6/ 14 1019.6R
S GREEN BAY BUOY 1300   68 73  190/ 16/ 19 1019.2R
N MID LAKE BUOY  1350   72 71  210/ 21/ 25 1018.6R   6/ 6
NORTHPORT PIER   1300   70     170/  5/ 10 1019.3
SISTER BAY       1307   71     200/ 17/ 20   N/A
KEWAUNEE LAKESHO 1300   64     180/ 11/ 12 1020.2R
SHEBOYGAN LAKESH 1400   65     170/ 12/ 13 1021.6R
PORT WASHINGTON  1340   66     170/  6/  8 1022.4R
ATWATER BUOY     1400   67 63  170/  8/ 12   N/A
MILWAUKEE LAKESH 1310   69     220/  9/ 11   N/A
S MID LAKE BUOY  1350   73 74  190/ 16/ 17 1022.2R   3/ 4
KENOSHA   LAKESH 1400   72     210/ 10/ 17 1022.4R
$$

TC  - TEMPERATURE IN CELSIUS
VSB - VISIBILITY IN STATUTE MILES
WCI - WIND CHILL INDEX
HX  - HEAT INDEX





USA.gov is the U.S. government's official web portal to all federal, state and local government web resources and services.